Location: Addison Town Hall
(32.9525°N, 96.8158°W)
Time: 22:33:10
(UTC+00:00)

Milstar 3 Cent rocket - Pass Details

Date: 08 March 2021
Orbit: 706 x 5147 km, 28.3° (Epoch: 11 April)

Event Time Altitude Azimuth Distance (km) Brightness Sun altitude
Exits shadow 12:11:53 - 261° (W) 2,312 3.8 -8.0°
Reaches altitude 10° 12:12:02 10° 261° (W) 2,251 3.8 -8.0°
Maximum altitude 12:16:34 45° 188° (S) 954 2.5 -7.0°
Drops below altitude 10° 12:21:24 10° 115° (ESE) 2,400 5.9 -6.0°
Sets 12:24:20 0° 109° (ESE) 3,619 7.3 -5.4°
